{"data":{"norad_id":68763,"epoch":"2026-05-24T22:30:29.248992Z","epoch_age_seconds":90848,"freshness":"FRESH","line1":"1 68763U 26083J   26144.93783853  .00002162  00000+0  14713-3 0  9991","line2":"2 68763  97.7768 282.7167 0010920 128.3677 231.8534 15.07366863  5708","mean_motion":15.07366863,"eccentricity":0.001092,"inclination_deg":97.7768,"raan_deg":282.7167,"arg_perigee_deg":128.3677,"mean_anomaly_deg":231.8534,"bstar":0.00014713,"rev_number":570,"period_min":95.530824999966,"perigee_km":536.6905997177,"apogee_km":551.8090925897,"semimajor_km":6922.3868461537,"source":"CELESTRAK","updated_at":"2026-05-25T13:38:08.078422Z"}}